Wetterdaten: aktuell Sonntag, 08.12.2019 06:40
Datum Zeit Temperatur Bodentemp. Luftfeuchte Luftdruck Niederschlag Windgeschw. Windrichtung Windrichtung Sonnenschein Nieder.dauer Evapotrans. Solarstrahl. Taupunkt Windchill Windböen
08.12.2019 06:40 8,4 °C 7,8 °C 86 % 997,4 hPa 0,0 l/m² 14,4 km/h (3 Bft) SW 225 ° 0 min 0 min 0 mm 0 W/m² 6,2 °C 3,5 °C 23,3 km/h (4 Bft)
08.12.2019 05:40 8,1 °C 7,2 °C 89 % 998,9 hPa 0,0 l/m² 16,1 km/h (3 Bft) SW 225 ° 0 min 0 min 0 mm 0 W/m² 6,4 °C 2,3 °C 21,5 km/h (4 Bft)
08.12.2019 04:40 7,8 °C 6,7 °C 88 % 1000,9 hPa 0,0 l/m² 14,4 km/h (3 Bft) SW 225 ° 0 min 0 min 0 mm 0 W/m² 5,9 °C 2,7 °C 19,7 km/h (3 Bft)
08.12.2019 03:40 7,6 °C 6,1 °C 88 % 1002,5 hPa 0,0 l/m² 7,2 km/h (2 Bft) S-SW 202 ° 0 min 0 min 0 mm 0 W/m² 5,7 °C 7,0 °C 10,8 km/h (2 Bft)
08.12.2019 02:40 7,6 °C 6,7 °C 91 % 1003,1 hPa 0,0 l/m² 16,1 km/h (3 Bft) SW 225 ° 0 min 0 min 0 mm 0 W/m² 6,2 °C 1,7 °C 25,1 km/h (4 Bft)
08.12.2019 01:40 7,6 °C 6,7 °C 95 % 1004,6 hPa 0,0 l/m² 7,2 km/h (2 Bft) S-SW 202 ° 0 min 0 min 0 mm 0 W/m² 6,9 °C 7,0 °C 19,7 km/h (3 Bft)
08.12.2019 00:40 7,8 °C 6,7 °C 97 % 1005,5 hPa 0,0 l/m² 9,0 km/h (2 Bft) S-SW 202 ° 0 min 0 min 0 mm 0 W/m² 7,4 °C 5,8 °C 19,7 km/h (3 Bft)
07.12.2019 23:40 7,8 °C 7,2 °C 98 % 1006,3 hPa 0,0 l/m² 7,2 km/h (2 Bft) W-SW 247 ° 0 min 0 min 0 mm 0 W/m² 7,5 °C 7,2 °C 25,1 km/h (4 Bft)
07.12.2019 22:40 7,8 °C 7,2 °C 100 % 1006,8 hPa 0,0 l/m² 1,8 km/h (1 Bft) S-SW 202 ° 0 min 0 min 0 mm 0 W/m² 7,8 °C 7,8 °C 14,4 km/h (3 Bft)
07.12.2019 21:40 7,8 °C 7,2 °C 100 % 1006,7 hPa 0,0 l/m² 7,2 km/h (2 Bft) SW 225 ° 0 min 22 min 0 mm 0 W/m² 7,8 °C 7,2 °C 17,9 km/h (3 Bft)
07.12.2019 20:40 7,8 °C 7,2 °C 100 % 1006,9 hPa 0,8 l/m² 3,6 km/h (1 Bft) W-NW 292 ° 0 min 60 min 0 mm 0 W/m² 7,8 °C 7,8 °C 14,4 km/h (3 Bft)
07.12.2019 19:40 7,7 °C 7,2 °C 99 % 1007,2 hPa 1,2 l/m² 3,6 km/h (1 Bft) W-NW 292 ° 0 min 44 min 0 mm 0 W/m² 7,6 °C 7,7 °C 12,6 km/h (3 Bft)
07.12.2019 18:40 7,5 °C 6,7 °C 98 % 1007,5 hPa 0,0 l/m² 0,0 km/h (0 Bft) N 0 ° 0 min 0 min 0 mm 0 W/m² 7,2 °C 7,5 °C 0,0 km/h (0 Bft)
07.12.2019 17:40 7,5 °C 6,7 °C 97 % 1006,8 hPa 0,0 l/m² 0,0 km/h (0 Bft) W-SW 247 ° 0 min 1 min 0 mm 0 W/m² 7,1 °C 7,5 °C 1,8 km/h (1 Bft)
07.12.2019 16:40 7,8 °C 6,7 °C 95 % 1006,5 hPa 0,0 l/m² 0,0 km/h (0 Bft) N 0 ° 3 min 6 min 0 mm 0 W/m² 7,0 °C 7,8 °C 0,0 km/h (0 Bft)
07.12.2019 15:40 8,1 °C 7,2 °C 90 % 1005,7 hPa 0,0 l/m² 0,0 km/h (0 Bft) N 0 ° 13 min 0 min 0 mm 14 W/m² 6,6 °C 8,1 °C 0,0 km/h (0 Bft)
07.12.2019 14:40 8,7 °C 8,3 °C 91 % 1004,9 hPa 0,0 l/m² 10,8 km/h (2 Bft) W-NW 292 ° 18 min 0 min 0 mm 51 W/m² 7,3 °C 5,7 °C 17,9 km/h (3 Bft)
07.12.2019 13:40 8,8 °C 7,8 °C 93 % 1004,8 hPa 0,0 l/m² 3,6 km/h (1 Bft) W 270 ° 0 min 0 min 0 mm 81 W/m² 7,7 °C 8,8 °C 14,4 km/h (3 Bft)
07.12.2019 12:40 8,5 °C 7,8 °C 96 % 1004,2 hPa 0,0 l/m² 0,0 km/h (0 Bft) W-NW 292 ° 0 min 0 min 0 mm 104 W/m² 7,9 °C 8,5 °C 1,8 km/h (1 Bft)
07.12.2019 11:40 7,9 °C 6,7 °C 96 % 1003,6 hPa 0,0 l/m² 1,8 km/h (1 Bft) W-SW 247 ° 1 min 0 min 0 mm 72 W/m² 7,3 °C 7,9 °C 12,6 km/h (3 Bft)
07.12.2019 10:40 7,8 °C 7,2 °C 100 % 1003,6 hPa 0,0 l/m² 0,0 km/h (0 Bft) N 0 ° 0 min 0 min 0 mm 60 W/m² 7,8 °C 7,8 °C 0,0 km/h (0 Bft)
07.12.2019 09:40 7,9 °C 7,2 °C 100 % 1002,7 hPa 0,2 l/m² 5,4 km/h (1 Bft) W-NW 292 ° 0 min 2 min 0 mm 28 W/m² 7,9 °C 7,9 °C 14,4 km/h (3 Bft)
07.12.2019 08:40 8,2 °C 7,8 °C 100 % 1001,3 hPa 0,0 l/m² 10,8 km/h (2 Bft) W 270 ° 0 min 16 min 0 mm 5 W/m² 8,2 °C 5,1 °C 16,1 km/h (3 Bft)
07.12.2019 07:40 8,4 °C 7,8 °C 100 % 999,9 hPa 1,2 l/m² 10,8 km/h (2 Bft) NW 315 ° 0 min 36 min 0 mm 0 W/m² 8,4 °C 5,3 °C 16,1 km/h (3 Bft)
07.12.2019 07:00 8,5 °C 7,8 °C 100 % 999,4 hPa 0,0 l/m² 7,2 km/h (2 Bft) W-NW 292 ° 0 min 0 min 0 mm 0 W/m² 8,5 °C 7,9 °C 10,8 km/h (2 Bft)
_ Min-Zeit 17:45 02:45 06:16 06:30 - 08:34 - - - - - - 03:37 04:23 08:34
Minimum _ 7,4 °C 6,1 °C 84 % 997,4 hPa - 0,0 km/h (0 Bft) - - - - - - 5,7 °C -2,7 °C 0,0 km/h (0 Bft)
_ Max-Zeit 14:19 14:15 07:00 18:30 07:14 04:23 - - 10:54 07:00 13:00 14:11 07:00 14:19 06:02
Maximum _ 9,1 °C 8,9 °C 100 % 1007,5 hPa 0,2 l/m² 30,5 km/h
SW (5 Bft)
- - 1 min 1 min 0 mm 146 W/m² 8,5 °C 9,1 °C 48,4 km/h
S-SW (6 Bft)
Durchschnitt _ 8,0 °C 7,2 °C 96 % 1003,8 hPa #3,4 l/m² 7,3 km/h (2 Bft) SW - #0 min. #0 min. #0,075 mm 0 W/m² 7,4 °C 6,2 °C 14,4 km/h (3 Bft)